Location: Perryvale
(54.4667°N, 113.3833°W)
Time: 21:44:17
(UTC+00:00)

Transit 2A - Pass Details

Date: 23 May 2024
Orbit: 592 x 959 km, 66.7° (Epoch: 19 June)

Event Time Altitude Azimuth Distance (km) Brightness Sun altitude
Rises 09:20:08 0° 278° (W) 3,096 9.0 -11.2°
Reaches altitude 10° 09:22:47 10° 292° (WNW) 2,241 8.4 -11.1°
Maximum altitude 09:27:01 25° 347° (NNW) 1,545 8.2 -10.8°
Drops below altitude 10° 09:31:36 10° 42° (NE) 2,451 10.1 -10.5°
Sets 09:34:39 0° 55° (NE) 3,453 10.7 -10.2°
